Location: L'Union
(43.6635°N, 1.4699°E)
Time: 05:03:33
(UTC+02:00)

Tiangong - Visible Passes

Search period start: 05 October 2022 00:00
Search period end: 15 October 2022 00:00
Orbit: 382 x 386 km, 41.5° (Epoch: 05 October)

Date Brightness Start Highest point End Pass type
(mag) Time Alt. Az. Time Alt. Az. Time Alt. Az.
08 Oct -0.5 20:48:30 10° SSW 20:50:42 21° SSE 20:50:42 21° SSE visible
09 Oct 0.0 19:49:25 10° S 19:51:15 14° SSE 19:53:05 10° ESE visible
09 Oct 0.0 21:24:35 10° WSW 21:25:56 22° SW 21:25:56 22° SW visible
10 Oct -1.1 20:24:50 10° SW 20:27:41 31° SSE 20:28:50 24° ESE visible
11 Oct -1.5 21:01:09 10° WSW 21:03:50 48° SSW 21:03:50 48° SSW visible
12 Oct -1.4 20:01:12 10° WSW 20:04:13 42° SSE 20:06:33 15° E visible
12 Oct 0.6 21:37:44 10° W 21:38:44 18° WSW 21:38:44 18° WSW visible
13 Oct -1.9 20:37:37 10° WSW 20:40:44 58° S 20:41:23 45° SE visible
14 Oct -1.7 19:37:30 10° WSW 19:40:35 52° S 19:43:41 10° E visible
14 Oct -0.5 21:14:09 10° W 21:16:10 32° WSW 21:16:10 32° WSW visible
